AirNav   Everest Fuels
 
 1070 users online  

85KY Deer Run Airpark
New Castle, Kentucky, USA

GOING TO NEW CASTLE?


FAA INFORMATION EFFECTIVE 07 OCTOBER 2021

Location

FAA Identifier: 85KY
Lat/Long: 38-28-13.0000N 085-08-19.0000W
38-28.216667N 085-08.316667W
38.4702778,-85.1386111
(estimated)
Elevation: 890 ft. / 271.3 m (surveyed)
Variation: 02W (1985)
From city: 3 miles NE of NEW CASTLE, KY
Time zone: UTC -4 (UTC -5 during Standard Time)
Zip code: 40011

Airport Operations

Airport use: Private use. Permission required prior to landing
Activation date: 03/1988
Control tower: no
ARTCC: INDIANAPOLIS CENTER
FSS: LOUISVILLE FLIGHT SERVICE STATION
Attendance: IREG
Wind indicator: yes
Segmented circle: no

Nearby radio navigation aids

VOR radial/distance  VOR name  Freq  Var
FFTr331/(20.4)FRANKFORT VOR109.4003W
IIUr042/30.2LOUISVILLE VORTAC114.8001E
CVGr216/38.6CINCINNATI VORTAC117.3004W

Airport Services

Runway Information

Runway 14/32

Dimensions: 3100 x 60 ft. / 945 x 18 m
Surface: turf
Runway edge markings: RED CONES THLDS & EDGE.
RUNWAY 14  RUNWAY 32
Traffic pattern: leftleft
Obstructions: none14 ft. pline, marked, 300 ft. from runway

Airport Ownership and Management from official FAA records

Ownership: Privately-owned
Owner: DEER RUN AIRPARK OWNERS ASSN
2680 DRENNON RD
NEW CASTLE, KY 40050
Phone 502-845-2216
ADDTL PHONE 502-706-0108
Manager: WILLIAM G GEIGER
2680 DRENNON RD
NEW CASTLE, KY 40050
Phone 502-845-2216

Airport Operational Statistics

Aircraft based on the field: 9
Single engine airplanes: 9
    

Additional Remarks

FOR CD CTC LOUISVILLE APCH AT 502-375-7499

Instrument Procedures

There are no published instrument procedures at 85KY.

Some nearby airports with instrument procedures:

KFFT - Capital City Airport (20 nm SE)
KIMS - Madison Municipal Airport (23 nm NW)
KLOU - Bowman Field Airport (29 nm SW)
KJVY - Clark Regional Airport (29 nm W)
KSDF - Louisville Muhammad Ali International Airport (33 nm SW)
 
Loc | Ops | Rwys | IFR | FBO | Links
Com | Nav | Svcs | Stats | Notes
Area around 85KY (Deer Run Airpark)
 
Road maps at: MapQuest Bing Google
 
Aerial photo
No photo
 
Sectional chart

 
Airport distance calculator
Flying to Deer Run Airpark? Find the distance to fly.

From to 85KY

Sunrise and sunset
Times for 19-Oct-2021
 Local
(UTC-4)
 Zulu
(UTC)
Morning civil twilight07:2811:28
Sunrise07:5511:55
Sunset18:5722:57
Evening civil twilight19:2323:23

Current date and time
Zulu (UTC)  19-Oct-2021 12:37:17
Local (UTC-4)  19-Oct-2021 08:37:17
 
METAR
KFFT 
21nm SE 
191153Z AUTO 00000KT 9SM CLR 05/04 A3023 RMK AO2 SLP238 T00500044 10078 20050 51015
KIMS 
23nm NW 
191215Z AUTO 00000KT 3/4SM BR VV005 05/05 A3024 RMK AO2
KJVY 
29nm W 
191215Z AUTO 00000KT 1/2SM FG OVC001 05/05 A3023 RMK AO2
KLOU 
29nm SW 
191153Z 00000KT 10SM CLR 08/07 A3023 RMK AO2 SLP236 T00780067 10094 20067 51012
KSDF 
33nm SW 
191156Z 13005KT 10SM CLR 08/07 A3023 RMK AO2 SLP235 T00830072 10106 20083 51012
K27K 
36nm SE 
191215Z AUTO 00000KT 5SM CLR 03/03 A3024 RMK AO1
KLEX 
36nm SE 
191154Z 15004KT 10SM CLR 06/04 A3023 RMK AO2 SLP238 T00560039 10078 20056 51015
KK62 
38nm E 
191215Z AUTO 19003KT 10SM CLR 06/05 A3023 RMK AO2
TAF
KSDF 
33nm SW 
191133Z 1912/2018 15003KT P6SM SKC FM191600 20007KT P6SM SCT250 FM200000 19004KT P6SM SKC
KLEX 
36nm SE 
191133Z 1912/2012 18005KT P6SM SKC FM191500 20006KT P6SM SCT250
NOTAMs
Click for the latest NOTAMs
NOTAMs are issued by the DoD/FAA and will open in a separate window not controlled by AirNav.

 

 
 

Would you like to see your business listed on this page?

 If your business provides an interesting product or service to pilots, flight crews, aircraft, or users of the Deer Run Airpark, you should consider listing it here.  To start the listing process, click on the button below
 
Add a business
 

Other Pages about Deer Run Airpark

Update a link
 
Copyright © AirNav, LLC. All rights reserved. Privacy Policy  Contact